TimeEDT,TemperatureF,Dew PointF,Humidity,Sea Level PressureIn,VisibilityMPH,Wind Direction,Wind SpeedMPH,Gust SpeedMPH,PrecipitationIn,Events,Conditions,WindDirDegrees,DateUTC
12:06 AM,57.2,57.2,100,29.93,4.0,Calm,Calm,-,N/A,,Overcast,0,2013-06-08 04:06:00
12:43 AM,57.2,57.2,100,29.93,2.5,Calm,Calm,-,N/A,,Mostly Cloudy,0,2013-06-08 04:43:00
12:51 AM,57.9,57.9,100,29.87,2.5,Calm,Calm,-,N/A,,Mostly Cloudy,0,2013-06-08 04:51:00
1:07 AM,57.2,57.2,100,29.93,3.0,NNW,3.5,-,N/A,,Overcast,330,2013-06-08 05:07:00
1:51 AM,57.9,57.0,97,29.87,3.0,NW,5.8,-,N/A,,Overcast,310,2013-06-08 05:51:00
2:18 AM,57.2,57.2,100,29.93,3.0,WNW,3.5,-,N/A,,Mostly Cloudy,300,2013-06-08 06:18:00
2:51 AM,57.9,57.0,97,29.88,3.0,Calm,Calm,-,N/A,,Overcast,0,2013-06-08 06:51:00
2:59 AM,57.2,57.2,100,29.93,2.5,Calm,Calm,-,N/A,,Overcast,0,2013-06-08 06:59:00
3:08 AM,57.2,57.2,100,29.93,3.0,Calm,Calm,-,N/A,,Overcast,0,2013-06-08 07:08:00
3:23 AM,57.2,57.2,100,29.93,3.0,Calm,Calm,-,N/A,,Overcast,0,2013-06-08 07:23:00
3:40 AM,57.2,57.2,100,29.93,2.5,Calm,Calm,-,N/A,,Overcast,0,2013-06-08 07:40:00
3:51 AM,57.0,57.0,100,29.88,2.5,Calm,Calm,-,0.00,Rain,Light Rain,0,2013-06-08 07:51:00
4:28 AM,57.2,55.4,94,29.94,3.0,North,3.5,-,0.00,Rain,Light Rain,360,2013-06-08 08:28:00
4:51 AM,57.0,55.9,96,29.89,3.0,Calm,Calm,-,0.00,,Overcast,0,2013-06-08 08:51:00
5:14 AM,57.2,55.4,94,29.95,2.5,South,3.5,-,0.00,Rain,Light Rain,180,2013-06-08 09:14:00
5:28 AM,57.2,55.4,94,29.96,3.0,Calm,Calm,-,0.01,Rain,Light Rain,0,2013-06-08 09:28:00
5:37 AM,57.2,55.4,94,29.96,2.5,Calm,Calm,-,0.01,Rain,Light Rain,0,2013-06-08 09:37:00
5:51 AM,57.0,55.9,96,29.91,2.5,Calm,Calm,-,0.04,Rain,Light Rain,0,2013-06-08 09:51:00
6:19 AM,57.2,57.2,100,29.97,1.5,NW,3.5,-,0.01,Rain,Light Rain,320,2013-06-08 10:19:00
6:26 AM,57.2,57.2,100,29.97,0.2,NNE,3.5,-,0.02,Fog-Rain,Light Rain,30,2013-06-08 10:26:00
6:46 AM,57.2,57.2,100,29.97,0.8,East,4.6,-,0.02,Rain,Light Rain,80,2013-06-08 10:46:00
6:51 AM,57.0,57.0,100,29.93,0.2,ENE,3.5,-,0.02,Fog-Rain,Light Rain,60,2013-06-08 10:51:00
7:13 AM,57.2,57.2,100,29.98,0.8,ENE,3.5,-,0.00,,Overcast,60,2013-06-08 11:13:00
7:21 AM,57.2,57.2,100,29.99,1.5,Calm,Calm,-,0.00,,Overcast,0,2013-06-08 11:21:00
7:36 AM,57.2,57.2,100,30.00,2.0,Calm,Calm,-,0.00,,Mostly Cloudy,0,2013-06-08 11:36:00
7:43 AM,57.2,57.2,100,30.00,1.5,Calm,Calm,-,0.00,,Mostly Cloudy,0,2013-06-08 11:43:00
7:51 AM,57.0,57.0,100,29.96,1.5,Calm,Calm,-,0.00,,Mostly Cloudy,0,2013-06-08 11:51:00
8:17 AM,59.0,57.2,94,30.00,2.0,Calm,Calm,-,N/A,,Overcast,0,2013-06-08 12:17:00
8:51 AM,59.0,57.0,93,29.96,3.0,WSW,3.5,-,N/A,,Overcast,250,2013-06-08 12:51:00
9:12 AM,60.8,57.2,88,30.02,4.0,Calm,Calm,-,N/A,,Overcast,0,2013-06-08 13:12:00
9:40 AM,62.6,57.2,82,30.03,6.0,Calm,Calm,-,N/A,,Haze,0,2013-06-08 13:40:00
9:48 AM,62.6,57.2,82,30.03,6.0,Calm,Calm,-,N/A,,Haze,0,2013-06-08 13:48:00
9:51 AM,62.1,57.0,84,29.98,6.0,Variable,3.5,-,N/A,,Haze,0,2013-06-08 13:51:00
10:00 AM,62.6,57.2,82,30.03,7.0,WSW,3.5,-,N/A,,Scattered Clouds,240,2013-06-08 14:00:00
10:51 AM,66.0,57.0,73,29.99,10.0,Calm,Calm,-,N/A,,Partly Cloudy,0,2013-06-08 14:51:00
11:51 AM,69.1,53.1,57,30.00,10.0,WNW,6.9,-,N/A,,Scattered Clouds,290,2013-06-08 15:51:00
12:51 PM,71.1,54.0,55,29.99,10.0,WSW,5.8,-,N/A,,Partly Cloudy,250,2013-06-08 16:51:00
1:51 PM,73.0,55.9,55,29.99,10.0,West,8.1,-,N/A,,Clear,270,2013-06-08 17:51:00
2:51 PM,73.0,55.0,53,29.98,10.0,NNW,6.9,-,N/A,,Mostly Cloudy,330,2013-06-08 18:51:00
3:51 PM,73.9,55.0,52,29.99,10.0,NNW,4.6,-,N/A,,Mostly Cloudy,330,2013-06-08 19:51:00
4:51 PM,73.9,55.0,52,29.99,10.0,West,4.6,-,N/A,,Mostly Cloudy,270,2013-06-08 20:51:00
5:51 PM,75.0,54.0,48,30.00,10.0,West,4.6,-,N/A,,Clear,280,2013-06-08 21:51:00
6:51 PM,75.0,55.0,50,30.01,10.0,NNW,3.5,-,N/A,,Clear,340,2013-06-08 22:51:00
7:51 PM,73.0,57.0,57,30.03,10.0,North,3.5,-,N/A,,Mostly Cloudy,10,2013-06-08 23:51:00
8:51 PM,68.0,60.1,76,30.05,10.0,ENE,3.5,-,N/A,,Clear,70,2013-06-09 00:51:00
9:51 PM,63.0,57.9,84,30.08,10.0,Calm,Calm,-,N/A,,Clear,0,2013-06-09 01:51:00
10:51 PM,61.0,57.9,90,30.09,10.0,Calm,Calm,-,N/A,,Clear,0,2013-06-09 02:51:00
11:51 PM,61.0,57.0,87,30.10,10.0,Calm,Calm,-,N/A,,Scattered Clouds,0,2013-06-09 03:51:00